HS6BUE-3 Weather Reports


Display with metric or nautical units.
time (UTC)temp
F
wind
direction
speed
MPH
gust
MPH
rain 1hr
in
rain 24hr
in
rain mn
in
humidity
%
barometer
mb
20260901134421 84 0 0.0 0.0 0.00 0.00 0.00 64 1004.0
20260901133359 84 0 0.0 0.0 0.00 0.00 0.00 64 1004.0
20260901132336 84 0 0.0 0.0 0.00 0.00 0.00 63 1004.0
20260901131313 84 0 0.0 0.0 0.00 0.00 0.00 64 1004.0
20260901130251 84 0 0.0 0.0 0.00 0.00 0.00 63 1004.0
20260901125228 84 0 0.0 0.0 0.00 0.00 0.00 62 1004.0
20260901124205 83 0 0.0 0.0 0.00 0.00 0.00 62 1003.0
20260901123143 83 0 0.0 0.0 0.00 0.00 0.00 62 1003.0
20260901122120 83 0 0.0 0.0 0.00 0.00 0.00 61 1003.0
20260901121057 83 0 0.0 0.0 0.00 0.00 0.00 60 1003.0
20260901120035 82 0 0.0 0.0 0.00 0.00 0.00 58 1003.0
20260901115012 82 0 0.0 0.0 0.00 0.00 0.00 58 1003.0
20260901113949 79 0 0.0 0.0 0.00 0.00 0.00 59 1002.0
20260901112927 79 0 0.0 0.0 0.00 0.00 0.00 57 1002.0
20260901111904 79 0 0.0 0.0 0.00 0.00 0.00 53 1002.0
20260901110841 80 0 0.0 0.0 0.00 0.00 0.00 60 1002.0
20260901105819 79 0 0.0 0.0 0.00 0.00 0.00 49 1001.0
20260901104758 80 0 0.0 0.0 0.00 0.00 0.00 59 1001.0
20260901103733 79 0 0.0 0.0 0.00 0.00 0.00 52 1001.0
20260901102711 79 0 0.0 0.0 0.00 0.00 0.00 52 1001.0
20260901101648 79 0 0.0 0.0 0.00 0.00 0.00 56 1001.0
20260901100625 78 0 0.0 0.0 0.00 0.00 0.00 46 1001.0
20260901095603 79 0 0.0 0.0 0.00 0.00 0.00 52 1001.0
20260901094540 80 0 0.0 0.0 0.00 0.00 0.00 52 1001.0
20260901093517 79 0 0.0 0.0 0.00 0.00 0.00 45 1001.0
20260901092455 81 0 0.0 0.0 0.00 0.00 0.00 51 1001.0
20260901091433 80 0 0.0 0.0 0.00 0.00 0.00 43 1001.0
20260901090410 79 0 0.0 0.0 0.00 0.00 0.00 40 1001.0
20260901085347 79 0 0.0 0.0 0.00 0.00 0.00 40 1001.0
20260901084324 80 0 0.0 0.0 0.00 0.00 0.00 42 1001.0
20260901083302 80 0 0.0 0.0 0.00 0.00 0.00 46 1001.0
20260901082239 81 0 0.0 0.0 0.00 0.00 0.00 50 1002.0
20260901081217 80 0 0.0 0.0 0.00 0.00 0.00 40 1002.0
20260901080154 80 0 0.0 0.0 0.00 0.00 0.00 42 1002.0
20260901075131 80 0 0.0 0.0 0.00 0.00 0.00 44 1002.0
20260901074108 80 0 0.0 0.0 0.00 0.00 0.00 42 1002.0
20260901073047 80 0 0.0 0.0 0.00 0.00 0.00 46 1002.0
20260901072023 81 0 0.0 0.0 0.00 0.00 0.00 48 1002.0
20260901071000 80 0 0.0 0.0 0.00 0.00 0.00 38 1003.0
20260901065938 80 0 0.0 0.0 0.00 0.00 0.00 39 1003.0
20260901064915 80 0 0.0 0.0 0.00 0.00 0.00 41 1003.0
20260901063852 80 0 0.0 0.0 0.00 0.00 0.00 43 1003.0
20260901062829 80 0 0.0 0.0 0.00 0.00 0.00 48 1003.0
20260901061807 80 0 0.0 0.0 0.00 0.00 0.00 46 1003.0
20260901060744 80 0 0.0 0.0 0.00 0.00 0.00 40 1003.0
20260901055722 80 0 0.0 0.0 0.00 0.00 0.00 42 1004.0
20260901054659 81 0 0.0 0.0 0.00 0.00 0.00 49 1004.0
20260901053636 80 0 0.0 0.0 0.00 0.00 0.00 44 1004.0
20260901052614 80 0 0.0 0.0 0.00 0.00 0.00 39 1004.0
20260901051551 80 0 0.0 0.0 0.00 0.00 0.00 42 1004.0
20260901050528 81 0 0.0 0.0 0.00 0.00 0.00 46 1005.0
20260901045506 81 0 0.0 0.0 0.00 0.00 0.00 44 1005.0
20260901044443 80 0 0.0 0.0 0.00 0.00 0.00 38 1005.0
20260901043420 80 0 0.0 0.0 0.00 0.00 0.00 39 1005.0
20260901042358 80 0 0.0 0.0 0.00 0.00 0.00 41 1005.0
20260901041335 80 0 0.0 0.0 0.00 0.00 0.00 46 1005.0
20260901040313 80 0 0.0 0.0 0.00 0.00 0.00 48 1005.0
20260901035250 79 0 0.0 0.0 0.00 0.00 0.00 39 1005.0
20260901034227 80 0 0.0 0.0 0.00 0.00 0.00 41 1005.0
20260901033204 80 0 0.0 0.0 0.00 0.00 0.00 44 1006.0
20260901032142 80 0 0.0 0.0 0.00 0.00 0.00 50 1005.0
20260901031119 79 0 0.0 0.0 0.00 0.00 0.00 44 1006.0
20260901030057 79 0 0.0 0.0 0.00 0.00 0.00 40 1006.0
20260901025034 79 0 0.0 0.0 0.00 0.00 0.00 41 1006.0
20260901024011 80 0 0.0 0.0 0.00 0.00 0.00 44 1005.0
20260901022948 81 0 0.0 0.0 0.00 0.00 0.00 50 1006.0
20260901021926 79 0 0.0 0.0 0.00 0.00 0.00 41 1006.0
20260901020903 79 0 0.0 0.0 0.00 0.00 0.00 40 1005.0
20260901015840 79 0 0.0 0.0 0.00 0.00 0.00 40 1005.0
20260901014818 79 0 0.0 0.0 0.00 0.00 0.00 40 1005.0
20260901013755 79 0 0.0 0.0 0.00 0.00 0.00 41 1005.0
20260901012732 79 0 0.0 0.0 0.00 0.00 0.00 43 1005.0
20260901011710 79 0 0.0 0.0 0.00 0.00 0.00 45 1005.0
20260901010647 80 0 0.0 0.0 0.00 0.00 0.00 50 1005.0
20260901005625 80 0 0.0 0.0 0.00 0.00 0.00 57 1005.0
20260901004602 81 0 0.0 0.0 0.00 0.00 0.00 59 1005.0
20260901003539 84 0 0.0 0.0 0.00 0.00 0.00 73 1005.0
20260901002517 84 0 0.0 0.0 0.00 0.00 0.00 73 1004.0
20260901001454 84 0 0.0 0.0 0.00 0.00 0.00 74 1004.0
20260901000431 84 0 0.0 0.0 0.00 0.00 0.00 75 1004.0
20260831235409 83 0 0.0 0.0 0.00 0.00 0.00 75 1004.0
20260831234346 83 0 0.0 0.0 0.00 0.00 0.00 75 1004.0
20260831233323 83 0 0.0 0.0 0.00 0.00 0.00 75 1004.0
20260831232301 84 0 0.0 0.0 0.00 0.00 0.00 79 1004.0
20260831231238 84 0 0.0 0.0 0.00 0.00 0.00 79 1004.0
20260831230215 84 0 0.0 0.0 0.00 0.00 0.00 79 1004.0
20260831225153 84 0 0.0 0.0 0.00 0.00 0.00 79 1004.0
20260831224130 84 0 0.0 0.0 0.00 0.00 0.00 79 1004.0
20260831223107 84 0 0.0 0.0 0.00 0.00 0.00 79 1004.0
20260831222045 84 0 0.0 0.0 0.00 0.00 0.00 79 1004.0
20260831221022 84 0 0.0 0.0 0.00 0.00 0.00 79 1003.0
20260831215959 84 0 0.0 0.0 0.00 0.00 0.00 79 1003.0
20260831214937 84 0 0.0 0.0 0.00 0.00 0.00 79 1004.0
20260831213914 84 0 0.0 0.0 0.00 0.00 0.00 79 1003.0
20260831212851 84 0 0.0 0.0 0.00 0.00 0.00 79 1004.0
20260831211829 84 0 0.0 0.0 0.00 0.00 0.00 79 1004.0
20260831210806 84 0 0.0 0.0 0.00 0.00 0.00 79 1004.0
20260831205743 84 0 0.0 0.0 0.00 0.00 0.00 79 1004.0
20260831204721 84 0 0.0 0.0 0.00 0.00 0.00 78 1004.0
20260831203658 84 0 0.0 0.0 0.00 0.00 0.00 78 1004.0
20260831202635 84 0 0.0 0.0 0.00 0.00 0.00 79 1004.0
20260831201613 84 0 0.0 0.0 0.00 0.00 0.00 79 1004.0
20260831200550 84 0 0.0 0.0 0.00 0.00 0.00 78 1004.0
20260831195528 84 0 0.0 0.0 0.00 0.00 0.00 78 1004.0
20260831194505 84 0 0.0 0.0 0.00 0.00 0.00 78 1004.0
20260831193442 84 0 0.0 0.0 0.00 0.00 0.00 79 1004.0
20260831192420 84 0 0.0 0.0 0.00 0.00 0.00 79 1004.0
20260831191357 84 0 0.0 0.0 0.00 0.00 0.00 80 1004.0
20260831190334 84 0 0.0 0.0 0.00 0.00 0.00 79 1004.0
20260831185312 84 0 0.0 0.0 0.00 0.00 0.00 79 1004.0
20260831184249 84 0 0.0 0.0 0.00 0.00 0.00 79 1004.0
20260831183226 84 0 0.0 0.0 0.00 0.00 0.00 78 1004.0
20260831182204 84 0 0.0 0.0 0.00 0.00 0.00 78 1004.0
20260831181141 84 0 0.0 0.0 0.00 0.00 0.00 78 1004.0
20260831180118 84 0 0.0 0.0 0.00 0.00 0.00 77 1004.0
20260831175056 84 0 0.0 0.0 0.00 0.00 0.00 77 1005.0
20260831174033 84 0 0.0 0.0 0.00 0.00 0.00 76 1005.0
20260831173010 84 0 0.0 0.0 0.00 0.00 0.00 76 1005.0
20260831171948 84 0 0.0 0.0 0.00 0.00 0.00 76 1005.0
20260831170925 84 0 0.0 0.0 0.00 0.00 0.00 77 1005.0
20260831165902 84 0 0.0 0.0 0.00 0.00 0.00 76 1005.0
20260831164840 84 0 0.0 0.0 0.00 0.00 0.00 77 1005.0
20260831163817 84 0 0.0 0.0 0.00 0.00 0.00 76 1005.0
20260831162755 84 0 0.0 0.0 0.00 0.00 0.00 76 1005.0
20260831161732 84 0 0.0 0.0 0.00 0.00 0.00 75 1005.0
20260831160710 84 0 0.0 0.0 0.00 0.00 0.00 76 1005.0
20260831155646 84 0 0.0 0.0 0.00 0.00 0.00 76 1005.0
20260831154624 84 0 0.0 0.0 0.00 0.00 0.00 76 1005.0
20260831153601 84 0 0.0 0.0 0.00 0.00 0.00 76 1005.0
20260831152538 83 0 0.0 0.0 0.00 0.00 0.00 77 1005.0
20260831151516 84 0 0.0 0.0 0.00 0.00 0.00 76 1005.0
20260831150453 84 0 0.0 0.0 0.00 0.00 0.00 75 1005.0
20260831145431 84 0 0.0 0.0 0.00 0.00 0.00 75 1005.0
20260831144408 83 0 0.0 0.0 0.00 0.00 0.00 76 1005.0
20260831143345 84 0 0.0 0.0 0.00 0.00 0.00 75 1005.0
20260831142323 84 0 0.0 0.0 0.00 0.00 0.00 73 1005.0
20260831141300 84 0 0.0 0.0 0.00 0.00 0.00 73 1005.0
20260831140237 84 0 0.0 0.0 0.00 0.00 0.00 73 1004.0
20260831135215 84 0 0.0 0.0 0.00 0.00 0.00 72 1004.0